This demonstration page uses our WeatherBlox Daily Observations layout. Learn more.

Left ArrowRight Arrow

30.21309, -93.2044

Hourly Observations for October 4, 2022

Temp ( °F °C ) Dew Point ( °F °C ) Humidity (%) Winds ( mph kmh ) Pressure ( in mb ) Visibility ( mi km ) Precip ( " mm )
12:15 am 00:15 Clear 67 19.6 52 11 58 58 NE 6 9 30.08 1019 10 16 0.00 0.00
12:35 am 00:35 Clear 67 19.4 52 11.2 59 59 NE 6 9 30.08 1019 10 16 0.00 0.00
12:55 am 00:55 Clear 67 19.2 52 11.1 59 59 NE 7 11 30.07 1018 10 16 0.00 0.00
1:15 am 01:15 Clear 66 18.7 52 11.1 61 61 NNE 5 7 30.07 1018 10 16 0.00 0.00
1:35 am 01:35 Clear 65 18.4 52 11.1 62 62 NNE 5 7 30.07 1018 10 16 0.00 0.00
1:55 am 01:55 Clear 65 18.5 52 11.2 62 62 NE 6 9 30.07 1018 10 16 0.00 0.00
2:15 am 02:15 Clear 65 18.1 52 11.2 64 64 NE 6 9 30.06 1018 10 16 0.00 0.00
2:35 am 02:35 Clear 64 17.7 52 11.2 66 66 NNE 6 9 30.07 1018 10 16 0.00 0.00
2:55 am 02:55 Clear 64 17.5 52 11.3 67 67 NNE 6 9 30.06 1018 10 16 0.00 0.00
3:15 am 03:15 Clear 63 17.4 53 11.4 68 68 NNE 6 9 30.06 1018 10 16 0.00 0.00
3:35 am 03:35 Clear 63 17.2 53 11.5 69 69 NNE 6 9 30.06 1018 10 16 0.00 0.00
3:55 am 03:55 Clear 62 16.9 53 11.6 71 71 NNE 5 7 30.06 1018 10 16 0.00 0.00
4:15 am 04:15 Clear 62 16.8 53 11.7 72 72 NNE 6 9 30.06 1018 10 16 0.00 0.00
4:35 am 04:35 Clear 62 16.9 53 11.7 71 71 NNE 5 7 30.06 1018 10 16 0.00 0.00
4:55 am 04:55 Clear 62 16.8 53 11.6 71 71 NNE 5 7 30.06 1018 10 16 0.00 0.00
5:15 am 05:15 Clear 62 16.6 53 11.5 72 72 Calm 30.06 1018 10 16 0.00 0.00
5:35 am 05:35 Clear 62 16.8 53 11.6 71 71 Calm 30.06 1018 10 16 0.00 0.00
6:00 am 06:00 Mostly Clear 61 16 54 12 77 77 N 7 11 30.07 1018 10 16 0.00 0.00
6:50 am 06:50 Mostly Clear 61 16 54 12 77 77 N 7 11 30.07 1018 10 16 0.00 0.00
7:55 am 07:55 Mostly Sunny 63 17 54 12 72 72 NNE 8 13 30.09 1019 10 16 0.00 0.00
8:55 am 08:55 Mostly Sunny 68 20 55 13 64 64 ENE 3 6 30.10 1019 10 16 0.00 0.00
9:53 am 09:53 Mostly Sunny 72 22 57 14 60 60 NNE 8 13 30.10 1019 10 16 0.00 0.00
10:55 am 10:55 Mostly Cloudy 75 24 59 15 57 57 Calm 30.11 1020 10 16 0.00 0.00
11:50 am 11:50 Partly Cloudy 79 26 61 16 54 54 Calm 30.10 1019 10 16 0.00 0.00
12:50 pm 12:50 Mostly Sunny 81 27 61 16 51 51 N 7 11 30.08 1019 10 16 0.00 0.00
1:49 pm 13:49 Partly Cloudy 81 27 61 16 51 51 N 7 11 30.06 1018 10 16 0.00 0.00
2:50 pm 14:50 Partly Cloudy 81 27 55 13 42 42 NE 7 11 30.03 1017 10 16 0.00 0.00
3:54 pm 15:54 Partly Cloudy 82 28 57 14 42 42 ENE 6 9 30.02 1017 10 16 0.00 0.00
4:48 pm 16:48 Partly Cloudy 81 27 57 14 45 45 VRB 5 7 30.01 1016 10 16 0.00 0.00
5:51 pm 17:51 Partly Cloudy 79 26 57 14 48 48 NNE 6 9 30.01 1016 10 16 0.00 0.00
6:51 pm 18:51 Mostly Sunny 77 25 57 14 50 50 Calm 30.02 1017 10 16 0.00 0.00
7:55 pm 19:55 Partly Cloudy 73 23 59 15 61 61 Calm 30.03 1017 10 16 0.00 0.00
8:45 pm 20:45 Mostly Clear 72 22 59 15 65 65 Calm 30.04 1017 10 16 0.00 0.00
9:53 pm 21:53 Mostly Clear 70 21 57 14 64 64 Calm 30.05 1018 10 16 0.00 0.00
10:15 pm 22:15 Clear 69 20.4 58 14.6 69 69 NE 6 9 30.05 1018 10 16 0.00 0.00
10:35 pm 22:35 Clear 69 20.4 59 14.8 70 70 NE 5 7 30.06 1018 10 16 0.00 0.00
10:55 pm 22:55 Clear 67 19.2 58 14.4 74 74 NE 3 6 30.06 1018 10 16 0.00 0.00
11:15 pm 23:15 Clear 65 18.6 58 14.6 78 78 NE 3 6 30.06 1018 10 16 0.00 0.00
11:35 pm 23:35 Clear 65 18.3 58 14.6 79 79 Calm 30.06 1018 10 16 0.00 0.00
11:55 pm 23:55 Clear 64 17.8 58 14.5 81 81 Calm 30.07 1018 10 16 0.00 0.00

Powered by AerisWeather